STARLINK-11308, 61246

Orbit data source: Space-Track

STARLINK-11308, 61246 is a payload satellite owned by SpaceX/Seattle (US) in LEO that was launched on Wed, 25 Sep 2024 UTC via an FALCON 9 launch vehicle from the Air Force Western Test Range (AFWTR). Payload-class satellites include a variety of spacecraft equipped with specific instruments for various scientific and technological missions. These include communications satellites like Starlink; space stations such as the ISS; scientific satellites like the Hubble; Earth observation satellites from companies like Planet Labs, Umbra, and HawkEye 360; GPS; miniature CubeSats for education and research; and military/defense satellites.

Loading next visibility...
Identifier
61246, 2024-175D
Orbit
LEO
Last TLE update
18 hours ago
Origin
Manufacturer
SpaceX/Seattle
Mission
Operational Commercial Communications
Bus & Motor
STARLINK V2M, Unknown motor
Mass
730 kg wet, ~700 kg dry
Launch date (UTC)
2024-09-25 (9 months ago)
Launch vehicle
FALCON 9
Launch site
Air Force Western Test Range (AFWTR)
Object type
Payload
Rocket body
Debris
Shape & HBR
Box + 2 Pan, 29 m
Radar Cross Section
36.964 m², Large (>1 m²)

Expand to show TLE details & history

TLE from 18 hours ago
0 STARLINK-11308
1 61246U 24175D   25187.26358819 -.00000216  00000-0  30745-5 0  9997
2 61246  53.1581 190.9719 0001188  65.4346 294.6795 15.69709117 44664
Epoch: 2025-07-06T06:19Z
TLE epoch observation values (Epoch: 2025-07-06T06:19:34.019Z)
Latitude
-0.00008°
Longitude
171.59031°
Altitude
360.31 km
Speed
7.695 km/s
True Right ascension
12h 43m 53s
True Declination
0° 00' 00"
Sunlit
Object was in daylight at epoch
Visualization orbit readout
Latitude
-22.5745°
Longitude
5.99857°
Altitude
366.771 km
Speed
7.689 km/s
Apparent Right ascension
00h 57m 36s
Apparent Declination
-31° 26' 18"
Sunlit
Object is in daylight
Visualization observer readout
Local Sidereal Time
12:01:31
Azimuth
302.39° NW
Elevation
-75.832°
Doppler factor
1
Orbital elements
Apogee altitude
360.791 km
Perigee altitude
359.19 km
Semi-major axis
6,738.127 km
Eccentricity
0.00012
Inclination
53.1581°
RAAN
190.9719°
Arg. of periapsis
65.4346°
True anomaly
Unknown
Mean anomaly
294.6795°
Eccentric anomaly
Unknown
Mean motion
3.92405 °/min
Orbital period
91.74 mins
BSTAR
0.0000030745
Loading maneuver chart data...
Loading SW <> Apogee altitude chart data...
Loading historical data...
Loading historical data...
Loading historical data...
Loading historical data...
Loading historical data...
Loading historical data...
Loading historical data...

STARLINK-11308 Visibility forecast

Observer location: undefined°, undefined°

Span
Click to sort rows by Start time (UTC) header in descending order
Start Az.
Max El. time (UTC)
Max El. Az.
Max El.
End time (UTC)
End Az.
5 mins2025-07-07 02:21:07.989Z196.564° SSW2025-07-07 02:24:07.989Z112.566° SE25.638°2025-07-07 02:26:07.989Z70.659° E
|